CZ-4B R/B (44707 NORAD) Tracking and Keplerian Element Data

This shows tracking and keplerian element data for the satellite.

Feedback or suggestion? Click here.




ElementValue
Catalog44707
NameCZ-4B R/B
Epoch Orbit468
Epoch Day336.90932523
Epoch Year2019
RAAN52.3525
Inclination97.5891
Eccentricity0.0176649
Argument of Perigee275.7681
Mean Anonmoly82.3444
Mean Motion15.74295441
Decay Rate0.00058985
L11 44707U 19072E 19336.90932523 .00058985 34544-5 14880-3 0 9990
L22 44707 97.5891 52.3525 0176649 275.7681 82.3444 15.74295441 4689



Live tracking and technical data element details for CZ-4B R/B (NORAD 44707). CZ-4B R/B can be tracked NOW for your location showing map with azimuth and elevation plus other details from your city location.







IsCatalogInMostPopularTable: catalog: 44707, numindb: 177
Update: records affected: 1



GetName: 44707 CZ-4B R/B

Hit Count: updated at: Sun, 28 May 2023 07:35:27 GMT